SL-14 DEB, 45301

Orbit data source: Space-Track

SL-14 DEB, 45301 is space debris in LEO originally from a launch on Thu, 15 Aug 1991 UTC launched from the Plesetsk Missile And Space Complex (PKMTR). Debris objects in space refer to the collection of defunct objects orbiting the Earth. Examples of debris include non-operational satellites, rocket bodies, and fragments generated from explosions, collisions, or faulty payload assembly.

Loading next visibility...
Identifier
45301, 1991-056AP
Orbit
LEO
Country
Flag of CISCIS
Related business
Manufacturer
Unknown
Mission
Spacecraft
Bus & Motor
Unknown
Mass
Unknown
Launch date (UTC)
1991-08-15 (34 years ago)
Launch vehicle
Unknown
Launch site
Plesetsk Missile And Space Complex (PKMTR)
Object type
Payload
Rocket body
Debris
Shape & HBR
Unknown shape, 0.6 m
Radar Cross Section
Medium (>0.1 m² and <1 m²)

Expand to show TLE details & history
Last TLE update: 5 hours ago

TLE from 5 hours ago
0 SL-14 DEB
1 45301U 91056AP  25292.27888991  .00005034  00000-0  60030-2 0  9999
2 45301  82.4853 206.4013 0180362 332.8876  26.2935 13.60452140280179
Epoch: 2025-10-19T06:41Z
TLE epoch observation values (Epoch: 2025-10-19T06:41:36.088Z)
Latitude
-0.00008°
Longitude
78.00308°
Altitude
917.525 km
Speed
7.452 km/s
True Right ascension
13h 45m 36s
True Declination
0° 00' 00"
Sunlit
Object was in daylight at epoch
Visualization orbit readout
Latitude
Unknown
Longitude
Unknown
Altitude
Unknown
Speed
Unknown
Apparent Right ascension
Unknown
Apparent Declination
Unknown
Sunlit
N/A
Visualization observer readout
Local Sidereal Time
06:10:47
Azimuth
Unknown
Elevation
Unknown
Doppler factor
Unknown
Orbital elements
Apogee altitude
1,164.872 km
Perigee altitude
897.598 km
Semi-major axis
7,409.372 km
Eccentricity
0.01804
Inclination
82.4853°
RAAN
206.4013°
Arg. of periapsis
332.8876°
True anomaly
27.22786°
Mean anomaly
26.2935°
Eccentric anomaly
26.75877°
Mean motion
3.40307 °/min
Orbital period
105.79 mins
BSTAR
0.006003
Loading maneuver chart data...
Computing Atmospheric mass density...
Loading historical data...
Loading historical data...
Loading historical data...
Loading historical data...
Loading historical data...
Loading historical data...
Loading historical data...

Documentation

Showing up to 5 results
|